Home   Weather   Brisbane   Past weeks

Flag for Australia Past Weather in Brisbane, Queensland, Australia — Yesterday and Last 2 Weeks

Now
73 °F

Clear.


Feels Like: 76 °F
Forecast: 48 / 80 °F
Wind: 13 mph from West

Location: Brisbane Airport M. O

Current Time: Oct 1, 2016 at 6:47:24 PM

Latest Report: Oct 1, 2016 at 6:00 PM


Visibility: 10 mi

Pressure: 29.86 "Hg

Humidity: 22%

Dew Point: 32 °F

Location of BrisbaneLocation

Past Weather in Brisbane — Graph

°F

Brisbane Temperature Yesterday

Maximum temperature yesterday: 79 °F (at 1:00 PM)
Minimum temperature yesterday: 59 °F (at 10:00 PM)
Average temperature yesterday: 69 °F

High & Low Weather Summary for the Past Weeks

 TemperatureHumidityPressure
High82 °F (Sep 25, 1:00 PM)100% (Sep 21, 11:30 AM)30.21 "Hg (Sep 21, 11:30 AM)
Low52 °F (Oct 1, 4:00 AM)15% (Sep 30, 4:00 PM)29.62 "Hg (Sep 30, 1:53 PM)
Average67 °F62%29.88 "Hg
* Reported Sep 16 5:00 PM — Oct 1 5:30 PM, Brisbane, Weather by CustomWeather, © 2016

Note: Actual official high and low records may vary slightly from our data, if they occured in-between our weather recording intervals... More about our weather records

Advertising

Brisbane Weather History for the Previous 24 Hours

Scroll right to see more
 ConditionsComfort  
Time TempWeatherWind HumidityBarometerVisibility
5:30 PM
Sat, Oct 1
77 °FSunny.13 mph17%29.86 "Hg10 mi
5:00 PM77 °FSunny.15 mph17%29.86 "Hg10 mi
4:30 PM79 °FSunny.18 mph17%29.83 "Hg10 mi
4:00 PM79 °FSunny.17 mph18%29.83 "Hg10 mi
3:00 PM81 °FSunny.18 mph16%29.83 "Hg10 mi
2:30 PM81 °FSunny.17 mph18%29.83 "Hg10 mi
2:00 PM81 °FSunny.17 mph20%29.83 "Hg10 mi
1:30 PM79 °FSunny.20 mph20%29.86 "Hg10 mi
1:00 PM79 °FSunny.16 mph18%29.86 "Hg10 mi
12:30 PM77 °FPassing clouds.17 mph22%29.86 "HgN/A
12:00 PM77 °FSunny.17 mph26%29.86 "Hg10 mi
11:02 AM75 °FSunny.17 mph24%29.89 "Hg10 mi
10:30 AM73 °FSunny.18 mph23%29.92 "Hg10 mi
10:00 AM72 °FSunny.23 mph25%29.92 "Hg10 mi
9:30 AM72 °FSunny.23 mph23%29.92 "Hg10 mi
9:00 AM70 °FSunny.21 mph25%29.92 "Hg10 mi
8:30 AM70 °FSunny.20 mph25%29.92 "Hg10 mi
8:00 AM68 °FSunny.10 mph35%29.92 "Hg10 mi
7:30 AM66 °FSunny.10 mph35%29.92 "Hg10 mi
7:00 AM63 °FSunny.10 mph39%29.89 "Hg10 mi
6:00 AM55 °FSunny.10 mph55%29.86 "Hg10 mi
5:00 AM55 °FClear.12 mph51%29.86 "Hg10 mi
4:30 AM52 °FClear.7 mph67%29.86 "Hg10 mi
4:00 AM52 °FClear.7 mph62%29.83 "Hg10 mi
3:00 AM59 °FPassing clouds.7 mph45%29.83 "HgN/A
2:30 AM55 °FClear.6 mph59%29.83 "Hg10 mi
2:00 AM54 °FPassing clouds.5 mph67%29.83 "HgN/A
1:30 AM57 °FClear.9 mph51%29.83 "Hg10 mi
1:00 AM57 °FClear.6 mph55%29.83 "Hg10 mi
12:00 AM55 °FClear.7 mph59%29.83 "Hg10 mi
11:00 PM
Fri, Sep 30
63 °FClear.7 mph39%29.83 "Hg10 mi
10:00 PM59 °FClear.6 mph51%29.83 "Hg10 mi
9:00 PM64 °FClear.10 mph34%29.83 "Hg10 mi
8:00 PM66 °FClear.8 mph32%29.80 "Hg10 mi
7:00 PM68 °FClear.20 mph26%29.77 "Hg10 mi
6:30 PM68 °FClear.17 mph26%29.74 "Hg10 mi
6:00 PM70 °FClear.20 mph23%29.74 "Hg10 mi
Weather by CustomWeather, © 2016

See weather overviewHow to use our weather pages